Location: Lecco
(45.8566°N, 9.3977°E)
Time: 12:24:40
(UTC+02:00)

Explorer 7 - Visible Passes

Search period start: 07 August 2020 00:00
Search period end: 17 August 2020 00:00
Orbit: 485 x 679 km, 50.3° (Epoch: 06 August)

Date Brightness Start Highest point End Pass type
(mag) Time Alt. Az. Time Alt. Az. Time Alt. Az.
07 Aug 8.5 03:12:46 21° ESE 03:12:46 21° ESE 03:14:11 10° ESE visible
07 Aug 7.7 04:49:18 20° WSW 04:50:32 24° SW 04:53:44 10° SSE visible
07 Aug 6.7 22:09:16 10° SW 22:13:05 53° SSE 22:16:47 10° ENE visible
07 Aug 7.4 23:49:52 10° W 23:53:36 50° NNW 23:53:57 48° N visible
08 Aug 6.5 22:13:55 10° WSW 22:17:49 78° SSE 22:21:37 10° ENE visible
08 Aug 7.7 23:54:50 10° W 23:58:30 43° N 23:58:50 42° N visible
09 Aug 6.7 22:18:42 10° WSW 22:22:37 76° NNW 22:26:25 10° ENE visible
09 Aug 7.8 23:59:47 10° WNW 00:03:23 41° N 00:03:23 41° N visible
10 Aug 7.2 22:23:36 10° W 22:27:28 58° NNW 22:31:12 10° ENE visible
11 Aug 7.9 00:04:41 10° WNW 00:07:48 39° NNW 00:07:48 39° NNW visible
11 Aug 7.5 22:28:32 10° W 22:32:20 48° NNW 22:35:51 11° ENE visible
12 Aug 8.2 00:09:33 10° WNW 00:12:08 34° NW 00:12:08 34° NW visible
12 Aug 7.7 22:33:30 10° W 22:37:14 43° N 22:40:08 15° ENE visible
13 Aug 8.4 00:14:23 10° WNW 00:16:26 28° NW 00:16:26 28° NW visible
13 Aug 7.8 22:38:26 10° WNW 22:42:09 41° N 22:44:25 20° ENE visible
14 Aug 8.8 00:19:11 10° WNW 00:20:42 22° WNW 00:20:42 22° WNW visible
14 Aug 7.4 21:02:12 10° W 21:06:10 55° NNW 21:09:57 10° ENE visible
14 Aug 7.6 22:43:20 10° WNW 22:47:05 43° N 22:48:42 27° ENE visible
15 Aug 9.1 00:23:59 10° WNW 00:24:58 17° WNW 00:24:58 17° WNW visible
15 Aug 7.6 21:07:10 10° W 21:11:03 47° N 21:14:46 10° ENE visible
15 Aug 7.4 22:48:12 10° WNW 22:51:59 48° N 22:52:57 38° NE visible
16 Aug 9.4 00:28:48 10° WNW 00:29:14 13° WNW 00:29:14 13° WNW visible
16 Aug 7.8 21:12:07 10° WNW 21:15:58 43° N 21:19:38 10° ENE visible
16 Aug 6.9 22:53:01 10° WNW 22:56:51 58° NNE 22:57:14 54° NE visible
